    Observer details:
    104 San Marcello Pistoiese.  Observers P. Bacci, M. Maestripieri.  Measurers P. 
       Bacci, L. Tesi, G. Fagioli.  0.60-m reflector + CCD.
    160 Castelmartini.  Observers M. Jaeger, E. Prosperi, S. Prosperi.  Measurer E. 
       Prosperi.  0.35-m f/10 Schmidt-Cassegrain + CCD.
    203 GiaGa Observatory.  Observers S. Foglia, G. Galli.  Measurer G. Galli.  
        0.36-m f/5.76 Schmidt-Cassegrain + CCD.
    204 Schiaparelli Observatory.  Observer L. Buzzi.  0.84-m f/3.5 reflector + CCD.
    595 Farra d'Isonzo.  Observers U. Montanar, E. Pettarin.  Measurer E. 
       Pettarin.  0.61-m f/4.5 reflector + CCD.
    598 Loiano.  Observer A. Carbognani.
    734 Farpoint Observatory, Eskridge.  Observers G. Hug, D. Cromer, D. Goodin.  
        Measurer D. Cromer.  0.7-m reflector + CCD.
    850 Cordell-Lorenz Observatory, Sewanee.  Observer D. T. Durig.  0.3-m f/7.8 
       Schmidt-Cassegrain + 2758x2208 CCD.
    958 Observatoire de Dax.  Observer P. Dupouy.  0.51-m f/6 reflector + CCD.
    C77 Bernezzo Observatory.  Observer A. Mantero.  0.25-m f/4.0 reflector + CCD.
    C95 SATINO Remote Observatory, Haute Provence.  Observer J. Jahn.  0.60-m f/3.2 
       Newtonian reflector + CCD.
    G96 Mt. Lemmon Survey.  Observers R. A. Kowalski, K. W. Wierzchos.  Measurers 
       E. J. Christensen, G. A. Farneth, D. C. Fuls, A. R. Gibbs, A. D. Grauer, H. 
       Groeller, R. A. Kowalski, S. M. Larson, G. J. Leonard, T. A. Pruyne, D. 
       Rankin, R. L. Seaman, F. C. Shelly, K. W. Wierzchos.  1.5-m reflector + 10K 
       CCD.
    H21 Astronomical Research Observatory, Westfield.  Observer R. Holmes.  
        Measurers S. Foglia, L. Buzzi, T. Linder, R. Holmes.  0.76-m f/3.0 
       astrograph + CCD.
    H36 Sandlot Observatory, Scranton.  Observer G. Hug.  0.56-m f/5.1 reflector + 
       CCD.
    I52 Steward Observatory, Mt. Lemmon Station.  Observers G. J. Leonard, D. C. 
       Fuls.  Measurers E. J. Christensen, G. A. Farneth, D. C. Fuls, A. R. Gibbs, 
       A. D. Grauer, H. Groeller, R. A. Kowalski, S. M. Larson, G. J. Leonard, T. 
       A. Pruyne, D. Rankin, R. L. Seaman, F. C. Shelly, K. W. Wierzchos.  1.0-m 
       reflector + CCD.
    I93 St Pardon de Conques.  Observer F. Losse.  0.40-m f/3.7 reflector + CCD.
    K61 Rokycany Observatory.  Observer M. Adamovsky.  0.51-m f/6.8 reflector + CCD.
    K63 G. Pascoli Observatory, Castelvecchio Pascoli.  Observers R. Bacci, P. 
       Bacci.  Measurer R. Bacci.  0.4-m f/3.2 Newtonian reflector + CCD.
    L01 Visnjan Observatory, Tican.  Observers K. Korlevic, F. Valentine.  Measurer 
       K. Korlevic.  1.0-m f/2.9 reflector + CCD.
    W34 Squirrel Valley Observatory, Columbus.  Observer R. L. Flynn.  0.35-m f/1.9 
       Schmidt-Cassegrain + CCD.
    
    Orbital elements:
    2020 CH2                                                 Earth MOID = 0.0534 AU
    Epoch 2020 May 31.0 TT = JDT 2459000.5                  Bell
    M 138.75032              (2000.0)            P               Q
    n   0.83734097     Peri.  300.02219     +0.07400820     -0.97391848
    a   1.1148108      Node   143.72829     +0.99332128     +0.05289994
    e   0.1123051      Incl.   21.25678     +0.08851905     +0.22064539
    P   1.18           H   24.7           G   0.15           U   7
    Residuals in seconds of arc
    200214 G96  0.0   0.2-    200214 L01  0.2+  0.1-    200215 W34  0.5+  0.1+
    200214 G96  0.1+  0.1-    200214 598  0.1-  0.2+    200215 W34  0.1+  0.6-
    200214 G96  0.0   0.1-    200214 L01  0.0   0.0     200215 W34  0.1-  0.3+
    200214 G96  0.2-  0.9-    200214 L01  0.1-  0.0     200215 W34  0.3-  0.0
    200214 734  0.1-  0.8+    200214 598  0.2-  0.0     200215 104  0.5-  0.1+
    200214 734  0.4+  0.8+    200214 C95  0.4+  0.0     200215 W34  0.5+  0.4-
    200214 734  0.3+  0.0     200214 I93  0.0   0.2+    200215 104  0.3+  0.3-
    200214 734  0.2+  0.7+    200214 I93  0.2-  0.3+    200215 104  0.3-  0.2+
    200214 734  0.1-  0.2+    200214 C77  0.4+  0.1+    200215 I52  0.0   0.3-
    200214 I52  0.2-  0.3-    200214 C95  0.1-  0.1+    200215 I52  0.4-  0.4-
    200214 I52  0.1+  0.5-    200214 160  0.2-  0.9-    200215 I52  0.1+  0.4-
    200214 I52  0.1-  0.2-    200214 C77  0.3+  0.6+    200215 I52  0.4-  0.6-
    200214 I52  0.1-  0.4-    200214 160  0.6+  0.3-    200215 H21  0.0   0.1+
    200214 L01  0.0   0.1-    200214 160  0.0   0.1-    200215 H21  0.1+  0.0
    200214 L01  0.4-  0.0     200214 160  0.8+  1.2-    200215 H21  0.0   0.1+
    200214 L01  0.0   0.0     200214 C77  1.2-  0.2+    200215 H21  0.1-  0.0
    200214 204  0.2-  0.1-    200214 160  0.0   0.5+    200215 850  0.0   0.3+
    200214 204  0.3+  0.4-    200214 595  0.5+  0.2-    200215 850  0.3-  0.3-
    200214 204  0.2+  0.3+    200214 203  0.3-  0.3-    200215 850  0.2-  0.1+
    200214 K63  0.4+  0.5+    200214 595  0.3-  0.3+    200215 850  0.4+  0.6+
    200214 K63  0.2-  0.7+    200214 595  0.1-  0.3+    200215 H36 (0.2+  2.0+)
    200214 I93  0.1-  0.1-    200214 203  0.2-  0.2-    200215 H36 (0.3+  2.3+)
    200214 C95  0.3-  0.1-    200214 595  0.3-  0.2-    200215 H36  0.0   0.2+
    200214 598  0.0   0.4+    200214 203  0.3+  0.1-    200215 K61  0.2+  0.6+
    200214 K63  0.1-  0.8+    200215 958  0.6-  0.0     200215 K61  0.1+  0.5-
    200214 I93  0.0   0.2-    200215 958  0.2+  0.2+    200215 K61  0.1+  0.0
    200214 598  0.1-  0.3+    200215 958  0.0   0.1-
    
    Ephemeris:
    2020 CH2                 a,e,i = 1.11, 0.11, 21                  q = 0.9896
    Date    TT    R. A. (2000) Decl.     Delta      r    Elong.  Phase     V
    2020 01 16    07 24 02.7 -67 19 31   0.1779  1.0039    91.4    78.4    23.7
    ...
    2020 01 31    07 55 14.8 -51 17 13   0.09450 1.0212   110.0    65.0    21.9
    ...
    2020 02 08    08 18 23.2 -21 55 24   0.05996 1.0326   139.5    38.3    20.2
    ...
    2020 02 14    08 39 06.7 +17 14 02   0.05682 1.0418   163.2    15.9    19.4
    2020 02 15    08 42 48.2 +23 21 44   0.05902 1.0434   160.8    18.1    19.6
    2020 02 16    08 46 33.1 +28 58 35   0.06188 1.0451   157.2    21.4    19.8
    ...
    2020 02 22    09 10 01.6 +51 41 32   0.08846 1.0550   136.6    40.1    21.1
    ...
    2020 03 01    09 42 23.6 +64 09 25   0.1350  1.0690   122.2    51.6    22.4
    ...
    2020 03 16    10 36 22.0 +70 13 17   0.2283  1.0962   110.6    58.1    23.8
    
    A. U. Tomatic                (C) Copyright 2020 MPC           M.P.E.C. 2020-C140
    


    Read MPEC 2020-C139 Read MPEC 2020-C141


    MPEC number:

    Enter an MPEC number in one of the following forms:

    • 1997-B01 (the full form)
    • J97B01 (the packed version of the full form)
    • B01 (the abbreviated form)